Regional Weather Roundup
Issued by NWS

Home | Current Version | Previous Version | Text Only | Print | Product List | Glossary Off
Versions: 1 2 3 4 5 6 7 8 9 10 11 12 13 14 15 16 17 18 19 20 21 22 23 24 25 26 27 28 29 30 31 32 33 34 35 36 37 38 39 40 41 42 43 44 45 46 47 48 49 50

000
ASUS43 KMPX 280410
RWRMN
WEATHER ROUNDUP FOR MINNESOTA
NATIONAL WEATHER SERVICE TWIN CITIES/CHANHASSEN MN
1100 PM CDT THU AUG 27 2015


NOTE: "FAIR" INDICATES FEW OR NO CLOUDS BELOW 12,000 FEET WITH NO
SIGNIFICANT WEATHER AND/OR OBSTRUCTIONS TO VISIBILITY. N/A MEANS
CURRENT SKY AND/OR WEATHER CONDITIONS ARE NOT AVAILABLE.

MNZ060>063-068>070-280500-
   Twin Cities Metro

CITY           SKY/WX    TMP DP  RH WIND       PRES   REMARKS
TWIN CITIES    MOCLDY    68  59  73 S12       30.01R
ST PAUL        MOCLDY    65  60  84 S8        30.01R
CRYSTAL        MOCLDY    67  59  75 S6        29.99R
BLAINE         MOCLDY    66  59  77 S6        30.00S
LAKEVILLE      CLOUDY    63  59  88 S3        30.02R
EDEN PRAIRIE   CLOUDY    66  59  78 S8        30.00R
SOUTH ST PAUL  CLOUDY    66  58  76 SE6       30.00S
LAKE ELMO      FAIR      63  59  88 S5        30.02S
$$
MNZ001>005-007-008-013>017-022>024-027-028-280500-
   Northwest Minnesota

CITY           SKY/WX    TMP DP  RH WIND       PRES   REMARKS
BEMIDJI        PTCLDY    61  60  99 CALM      29.94S FOG
HALLOCK        CLEAR     63  59  88 SE8       29.86F
ROSEAU         FAIR      61  55  82 S3        29.89F
WARROAD        CLEAR     61  57  88 CALM      29.90F
THIEF RVR FALL CLEAR    N/A N/A N/A S3        29.90S
CROOKSTON      CLEAR     63  61  94 S6        29.90F
FOSSTON        PTCLDY    59  57  94 CALM      29.93F FOG
DETROIT LAKES  PTCLDY    64  63  94 S3        29.96S
MOORHEAD       PTCLDY    66  64  94 S8        29.92F
PARK RAPIDS    CLOUDY    67  62  84 S5        29.96S
MAHNOMEN       MOCLDY    63  62  96 S5        29.94S
$$
MNZ006-009>011-018-025>026-280500-
   North Central Minnesota

CITY           SKY/WX    TMP DP  RH WIND       PRES   REMARKS
BAUDETTE       CLEAR     64  60  87 S5        29.91S
FLAG ISLAND    CLEAR     66  63  88 CALM      29.89S
INTL FALLS     CLOUDY    66  61  84 CALM      29.93F
WASKISH        CLEAR     64  63  94 SE3       29.92F
BIG FORK       CLEAR     63  61  94 CALM      29.96S
LONGVILLE      MOCLDY    63  61  94 CALM      29.96S
GRAND RAPIDS     N/A     64  59  82 S7        29.97S
CRANE LAKE     CLEAR     54  54 100 CALM      29.97S
ORR            MOCLDY    64  57  77 S5        29.94S
COOK           PTCLDY    64  59  82 S3        29.97F
WALKER         MOCLDY    66  63  89 S3        29.95S
$$
MNZ012-019>021-037-280500-
   Northeast Minnesota

CITY           SKY/WX    TMP DP  RH WIND       PRES   REMARKS
DULUTH         CLOUDY    60  52  74 SE5       30.00S
ELY            CLOUDY    64  55  72 S3        29.98F
HIBBING        CLOUDY    65  59  81 SE5       29.98S
EVELETH        CLOUDY    63  57  82 S6        30.00S
DULUTH HARBOR  CLOUDY    57  54  88 CALM      30.01S
TWO HARBORS    PTCLDY    57  54  88 CALM      29.99S
SILVER BAY     CLOUDY    59  55  88 CALM      29.99F
GRAND MARAIS     N/A     54  50  86 CALM      30.01F
G MARAIS ARPRT CLEAR     52  45  76 CALM      30.04S
$$
MNZ029>031-032-039>041-046>048-054>057-064-280500-
   West Central Minnesota

CITY           SKY/WX    TMP DP  RH WIND       PRES   REMARKS
FERGUS FALLS   PTCLDY    66  66 100 S5        29.94S
WHEATON        PTCLDY    63  61  94 SE7       29.95F
MORRIS         MOCLDY    64  64 100 SE7       29.95S
ALEXANDRIA     PTCLDY    65  64  97 S9        29.98S
ELBOW LAKE     FAIR      66  65  98 SE7       29.95F
WADENA         PTCLDY    63  61  94 CALM      29.96S
GLENWOOD       PTCLDY    63  63 100 SE5       29.99R
APPLETON       MOCLDY    66  63  88 E5        29.94F
BENSON         MOCLDY    64  63  94 S6        29.95F
ORTONVILLE     MOCLDY    66  64  94 SE3       29.94F
MADISON        CLOUDY    64  63  94 E6        29.94F
WILLMAR        FAIR      64  64 100 SE6       29.98F
$$
MNZ033>034-036-042>043-049>051-058-059-280500-
   Central Minnesota

CITY           SKY/WX    TMP DP  RH WIND       PRES   REMARKS
ST CLOUD       FAIR      61  60  97 S6        29.99R
SAUK CENTRE    FAIR      62  61  97 S6        29.98S
PAYNESVILLE    MOCLDY    64  62  92 E8        29.99S
AITKIN         CLOUDY    68  61  77 S6        29.97S
PINE RIVER     PTCLDY    64  63  94 SE3       30.00S
BRAINERD       CLOUDY    67  62  84 S7        29.98S
STAPLES        CLOUDY    64  63  94 S8        29.97R
LONG PRAIRIE   FAIR      59  59 100 SE3       29.98S
LITTLE FALLS   PTCLDY    63  59  88 S3        29.98S
LITCHFIELD     CLOUDY    63  63 100 SE3       29.99F
BUFFALO        MOCLDY    64  58  83 CALM      30.01R
MAPLE LAKE     MOCLDY    64  62  93 S3        30.01R
$$
MNZ037-044-045-052-053-280500-
   East Central Minnesota

CITY           SKY/WX    TMP DP  RH WIND       PRES   REMARKS
PRINCETON      MOCLDY    64  61  88 S5        29.99S
MORA           PTCLDY    61  59  94 CALM      30.01S
CAMBRIDGE      MOCLDY    66  55  68 CALM      29.98S
RUSH CITY      MOCLDY    63  59  85 S5        30.00S
MOOSE LAKE     CLOUDY    64  59  82 CALM      29.98S
HINCKLEY       FAIR      63  61  94 CALM      29.99S
CLOQUET        CLOUDY    59  52  77 CALM      30.00S
MCGREGOR       MOCLDY    64  61  88 S5        29.99S
$$
MNZ071>073-080-081-089-090-097-098-280500-
   Southwest Minnesota

CITY           SKY/WX    TMP DP  RH WIND       PRES   REMARKS
MONTEVIDEO     MOCLDY    64  64 100 SE6       29.97F FOG
GRANITE FALLS  CLOUDY    64  64  97 CALM      29.97F
CANBY          CLOUDY    66  64  93 CALM      29.95S
MARSHALL       CLOUDY    64  61  88 NE9       29.95F
REDWOOD FALLS  CLOUDY    65  62  90 E6        29.96F
OLIVIA         CLOUDY    61  59  94 SE6       29.97S
PIPESTONE      RAIN      66  64  94 S12       29.96S
WINDOM         LGT RAIN  64  61  88 SE8       29.99S
WORTHINGTON    CLOUDY    63  57  82 S16G22    29.99S
JACKSON        CLOUDY    64  61  88 S14       30.01R
TRACY          DRIZZLE   67  64  89 S13       29.94F
SLAYTON        LGT RAIN  64  64  98 SE14G22   29.99S
$$
MNZ065>067-074>077-082>085-091>093-280500-
   South Central Minnesota

CITY           SKY/WX    TMP DP  RH WIND       PRES   REMARKS
MANKATO        CLOUDY    64  57  77 S8        30.01S
NEW ULM        CLOUDY    64  61  88 SE6       29.99S
ST JAMES       LGT RAIN  66  63  88 S13       29.99F
FAIRMONT       CLOUDY    64  55  72 S12       30.01S
GLENCOE        CLOUDY    63  62  95 SE3       29.99F
FARIBAULT      CLOUDY    64  61  88 S7        30.03F
OWATONNA       CLOUDY    64  59  82 SE8       30.03F
WASECA         CLOUDY    63  59  88 MISG      30.04S
ALBERT LEA     LGT RAIN  64  61  88 S7        30.04F
$$
MNZ078>079-086>088-094>096-280500-
   Southeast Minnesota

CITY           SKY/WX    TMP DP  RH WIND       PRES   REMARKS
ROCHESTER      CLOUDY    63  59  87 S10       30.06R
RED WING       MOCLDY    66  59  77 SE7       30.01S
STANTON        CLOUDY    66  59  78 S7        30.01R
DODGE CENTER   CLOUDY    63  59  88 S7        30.05R
WINONA         CLOUDY    66  61  82 CALM      30.05R
AUSTIN         CLOUDY    64  61  88 S3        30.06R
PRESTON        CLOUDY    62  58  88 S7        30.07S
$$
ABBREVIATIONS USED IN REMARKS
   TC - TEMPERATURES IN CELSIUS
  WCI - WIND CHILL INDEX
   HX - HEAT INDEX
  VSB - VISIBILITY
$$



USA.gov is the U.S. government's official web portal to all federal, state and local government web resources and services.